2007 RO1
ephemeris date magn radius delta ra dec elong phase
Today4 Sep 202630.03.487 AU4.301 AU08h52m+22°03'32.0°8.8°
2007 RO1 - 2026-09-04
astro.vanbuitenen.nl


 
-1 year
-1 month
-1 day
Now
+1 day
+1 month
+1 year

The interactive orbit chart above shows the body's path through the solar system and its position at the given date. Green and blue lines are shown perpendicular to the ecliptic plane: Green if the path is above the ecliptic plane, blue if it is below. (Left-click and drag to rotate the view; Right-click and drag to move the view; Use scroll wheel to zoom in our out.)

The orbital elements of 2007 RO1 are:

            e (Eccentricity)                : 0.6043175
            a (Semimajor axis)              : 2.2676229
            i (Inclination)                 : 8.58601
            Ω (Longitude of ascending node) : 338.92163
            ω (Argument of perihelion)      : 307.73674
            M (Mean anomaly)                : 197.88067
            Epoch                           : 2026 Jun 09

            L (Longitude of perihelion)     : 286.97136
            B (Latitude of perihelion)      : -6.78052
            P (Orbital period in years)     : 3.41            
        

The light curve chart below shows the estimated development of the minor planet's magnitude.


The all-sky chart below shows the path of the minor planet over the same period as the light curve. The current position is marked yellow.





The following chart shows the path of the minor planet in the next few days. The field of view is optimized for (~10x50) binoculars and finderscopes.




Ephemerides:
Date       Time       RA (2000)    DEC (2000)    delta   radius  elong  phase   PA    magn
2026-09-04 00:00 UT   08 52 27.8   +22 03 32     4.301    3.487   32.0    8.8   293   30.0 
2026-09-04 14:12 UT   08 53 07.9   +22 00 50     4.295    3.485   32.4    8.9   293   30.0 
2026-09-05 00:00 UT   08 53 35.6   +21 58 59     4.291    3.485   32.6    9.0   293   30.0 
2026-09-06 00:00 UT   08 54 43.2   +21 54 26     4.281    3.483   33.3    9.2   293   30.0 
2026-09-07 00:00 UT   08 55 50.6   +21 49 52     4.270    3.480   34.0    9.3   293   30.0 
2026-09-08 00:00 UT   08 56 57.7   +21 45 18     4.259    3.478   34.7    9.5   292   30.0 
2026-09-09 00:00 UT   08 58 04.5   +21 40 45     4.248    3.476   35.4    9.7   292   30.0 
2026-09-10 00:00 UT   08 59 11.1   +21 36 11     4.237    3.474   36.1    9.8   292   30.0 
2026-09-11 00:00 UT   09 00 17.5   +21 31 37     4.225    3.472   36.8   10.0   292   30.0 
2026-09-12 00:00 UT   09 01 23.6   +21 27 03     4.214    3.470   37.5   10.2   292   30.0 
2026-09-13 00:00 UT   09 02 29.4   +21 22 29     4.202    3.468   38.2   10.3   292   30.0 
2026-09-14 00:00 UT   09 03 34.9   +21 17 56     4.190    3.465   38.9   10.5   292   30.0 
2026-09-15 00:00 UT   09 04 40.2   +21 13 23     4.178    3.463   39.6   10.7   292   30.0 
2026-09-16 00:00 UT   09 05 45.1   +21 08 49     4.166    3.461   40.3   10.8   292   30.0 
2026-09-17 00:00 UT   09 06 49.8   +21 04 17     4.154    3.459   41.0   11.0   292   30.0 
2026-09-18 00:00 UT   09 07 54.2   +20 59 44     4.141    3.457   41.7   11.2   292   30.0 
2026-09-19 00:00 UT   09 08 58.2   +20 55 12     4.129    3.454   42.4   11.3   292   30.0 
2026-09-20 00:00 UT   09 10 02.0   +20 50 40     4.116    3.452   43.2   11.5   292   30.0 
2026-09-21 00:00 UT   09 11 05.4   +20 46 09     4.103    3.450   43.9   11.6   292   30.0 
2026-09-22 00:00 UT   09 12 08.5   +20 41 39     4.090    3.447   44.6   11.8   292   30.0 
2026-09-23 00:00 UT   09 13 11.3   +20 37 09     4.076    3.445   45.3   11.9   292   30.0 
2026-09-24 00:00 UT   09 14 13.7   +20 32 39     4.063    3.443   46.0   12.1   292   30.0 
2026-09-25 00:00 UT   09 15 15.8   +20 28 10     4.049    3.440   46.7   12.3   292   30.0 
2026-09-26 00:00 UT   09 16 17.6   +20 23 42     4.036    3.438   47.5   12.4   292   30.0 
2026-09-27 00:00 UT   09 17 19.0   +20 19 15     4.022    3.436   48.2   12.6   291   29.9 
2026-09-28 00:00 UT   09 18 20.0   +20 14 48     4.008    3.433   48.9   12.7   291   29.9 
2026-09-29 00:00 UT   09 19 20.7   +20 10 23     3.994    3.431   49.6   12.9   291   29.9 
2026-09-30 00:00 UT   09 20 21.0   +20 05 58     3.980    3.429   50.4   13.0   291   29.9 
2026-10-01 00:00 UT   09 21 21.0   +20 01 34     3.965    3.426   51.1   13.1   291   29.9 
2026-10-02 00:00 UT   09 22 20.5   +19 57 12     3.951    3.424   51.8   13.3   291   29.9 
2026-10-03 00:00 UT   09 23 19.7   +19 52 50     3.936    3.421   52.6   13.4   291   29.9 
2026-10-04 00:00 UT   09 24 18.4   +19 48 29     3.921    3.419   53.3   13.6   291   29.9 


    Terminology:
            
    delta:  distance between minor planet and earth in AU
    radius: distance between minor planet and sun in AU
    magn:   magnitude (brightness) estimate    
    ra:     right ascension in hours (24h = 360deg)
    dec:    declination in degrees
    elong:  elongation in degrees (angle sun-earth-minor planet)    
    phase:  phase angle in degrees (angle sun-minor planet-earth)        
    AU:     Astronomical Unit (mean distance between earth and sun: 149597870.7 km
    

Orbital elements provided by the MPC (Minor Planet Center).
Calculations by a modified version of AAPlus, a C# implementation of the AA+ project by PJ Naughter from the algorithms presented in the book "Astronomical Algorithms" by Jean Meeus.
NGC2000 dso catalog and star labels from VizieR as provided by the Strasbourg astronomical Data Center.
Tycho2 catalog from the ESO archive.